Satellite: STUDSAT
Catalog number: 36801
Epoch time:      10229.92441157
Element set:    0099
Inclination:      098.1451 deg
RA of node:       289.5640 deg
Eccentricity:    0.0014052
Arg of perigee:   159.2964 deg
Mean anomaly:     200.8819 deg
Mean motion:   14.79590841 rev/day
Decay rate:       9.57e-06 rev/day^2
Epoch rev:           00544
Checksum:              312

/EX
SB KEPS @ AMSAT  $ORB10230.W
Orbital Elements  10230.WEATHER

HR AMSAT ORBITAL ELEMENTS FOR WEATHER SATELLITES
FROM WA5QGD FORT WORTH,TX August 18, 2010
Send Subscribe/unsubscribe to KEPS at http://www.amsat.org/mailman/listinfo/keps
BID: ORB10230.W
TO ALL RADIO AMATEURS BT

Satellite: NOAA-10
Catalog number: 16969
Epoch time:      10229.69749705
Element set:    0171
Inclination:      098.6537 deg
RA of node:       258.0786 deg
Eccentricity:    0.0013066
Arg of perigee:   034.8866 deg
Mean anomaly:     325.3184 deg
Mean motion:   14.27424040 rev/day
Decay rate:       -2.1e-07 rev/day^2
Epoch rev:           24435
Checksum:              314

Satellite: NOAA-11
Catalog number: 19531
Epoch time:      10229.83255473
Element set:    0183
Inclination:      098.7676 deg
RA of node:       317.8066 deg
Eccentricity:    0.0011471
Arg of perigee:   336.9709 deg
Mean anomaly:     023.0940 deg
Mean motion:   14.14931931 rev/day
Decay rate:      -2.41e-06 rev/day^2
Epoch rev:           12985
Checksum:              306

Satellite: NOAA-12
Catalog number: 21263
Epoch time:      10229.97211890
Element set:    0674
Inclination:      098.7649 deg
RA of node:       243.1248 deg
Eccentricity:    0.0012449
Arg of perigee:   351.9668 deg
Mean anomaly:     008.1316 deg
Mean motion:   14.25648944 rev/day
Decay rate:        2.8e-07 rev/day^2
Epoch rev:           00120
Checksum:              300

Satellite: MET-3/5
Catalog number: 21655
Epoch time:      10230.70257369
Element set:     891
Inclination:      082.5539 deg
RA of node:       264.4671 deg
Eccentricity:    0.0013269
Arg of perigee:   186.5737 deg
Mean anomaly:     173.5197 deg
Mean motion:   13.17021515 rev/day
Decay rate:        5.1e-07 rev/day^2
Epoch rev:           91390
Checksum:              308

Satellite: MET-2/21
Catalog number: 22782
Epoch time:      10229.97495912
Element set:    0860
Inclination:      082.5470 deg
RA of node:       203.4179 deg
Eccentricity:    0.0021037
Arg of perigee:   226.5813 deg
Mean anomaly:     133.3607 deg
Mean motion:   13.83645747 rev/day
Decay rate:       -5.0e-08 rev/day^2
Epoch rev:           85662
Checksum:              308

Satellite: OKEAN-4
Catalog number: 23317
Epoch time:      10229.79595068
Element set:     314
Inclination:      082.5412 deg
RA of node:       296.3586 deg
Eccentricity:    0.0023502
Arg of perigee:   042.4294 deg
Mean anomaly:     317.8723 deg
Mean motion:   14.82848301 rev/day
Decay rate:       1.44e-06 rev/day^2
Epoch rev:           85558
Checksum:              309

Satellite: NOAA-14
Catalog number: 23455
Epoch time:      10229.85464150
Element set:    0164
Inclination:      098.8758 deg
RA of node:       310.1613 deg
Eccentricity:    0.0010267
Arg of perigee:   062.8323 deg
Mean anomaly:     297.3899 deg
Mean motion:   14.13791522 rev/day
Decay rate:       -1.9e-07 rev/day^2
Epoch rev:           80621
Checksum:              303

Satellite: NOAA-15
Catalog number: 25338
Epoch time:      10230.37157681
Element set:     489
Inclination:      098.6238 deg
RA of node:       216.1962 deg
Eccentricity:    0.0009605
Arg of perigee:   253.3491 deg
Mean anomaly:     106.6655 deg
Mean motion:   14.24848425 rev/day
Decay rate:       -2.4e-07 rev/day^2
Epoch rev:           63760
Checksum:              313

Satellite: RESURS
Catalog number: 25394
Epoch time:      10229.82078672
Element set:     580
Inclination:      098.3045 deg
RA of node:       244.5449 deg
Eccentricity:    0.0002491
Arg of perigee:   054.1532 deg
Mean anomaly:     305.9873 deg
Mean motion:   14.24207838 rev/day
Decay rate:       -5.0e-08 rev/day^2
Epoch rev:           62912
Checksum:              298

Satellite: FENGYUN1
Catalog number: 25730
Epoch time:      10230.83096284
Element set:     115
Inclination:      098.7877 deg
RA of node:       194.1593 deg
Eccentricity:    0.0023421
Arg of perigee:   087.1532 deg
Mean anomaly:     273.2330 deg
Mean motion:   14.08249695 rev/day
Decay rate:       4.59e-06 rev/day^2
Epoch rev:           58050
Checksum:              300

Satellite: OKEAN-0
Catalog number: 25860
Epoch time:      10230.47667167
Element set:      75
Inclination:      097.8383 deg
RA of node:       201.0782 deg
Eccentricity:    0.0000632
Arg of perigee:   093.2857 deg
Mean anomaly:     266.8415 deg
Mean motion:   14.73655656 rev/day
Decay rate:        5.6e-07 rev/day^2
Epoch rev:           59607
Checksum:              315

Satellite: NOAA-16
Catalog number: 26536
Epoch time:      10230.34612962
Element set:     967
Inclination:      099.1697 deg
RA of node:       249.2777 deg
Eccentricity:    0.0010777
Arg of perigee:   158.6253 deg
Mean anomaly:     201.5382 deg
Mean motion:   14.12570925 rev/day
Decay rate:      -1.92e-06 rev/day^2
Epoch rev:           51060
Checksum:              313

Satellite: NOAA-17
Catalog number: 27453
Epoch time:      10229.75134905
Element set:    0959
Inclination:      098.4253 deg
RA of node:       277.7009 deg
Eccentricity:    0.0011016
Arg of perigee:   321.6063 deg
Mean anomaly:     038.4345 deg
Mean motion:   14.24181879 rev/day
Decay rate:        5.8e-07 rev/day^2
Epoch rev:           42346
Checksum:              308

Satellite: NOAA-18
Catalog number: 28654
Epoch time:      10229.76393479
Element set:    0445
Inclination:      098.9526 deg
RA of node:       175.8605 deg
Eccentricity:    0.0013484
Arg of perigee:   238.7114 deg
Mean anomaly:     121.2742 deg
Mean motion:   14.11381964 rev/day
Decay rate:       4.48e-06 rev/day^2
Epoch rev:           27012
Checksum:              321

Satellite: NOAA-19
Catalog number: 33591
Epoch time:      10229.76544613
Element set:    0643
Inclination:      098.7901 deg
RA of node:       170.5845 deg
Eccentricity:    0.0015012
Arg of perigee:   113.0771 deg
Mean anomaly:     247.2025 deg
Mean motion:   14.11074991 rev/day
Decay rate:        9.0e-07 rev/day^2
Epoch rev:           07859
Checksum:              295

/EX
SB KEPS @ AMSAT  $ORB10230.M
Orbital Elements  10230.MISC

HR AMSAT ORBITAL ELEMENTS FOR MANNED AND MISCELLANEOUS SATELLITES
FROM WA5QGD FORT WORTH,TX August 18, 2010
Send Subscribe/unsubscribe to KEPS at http://www.amsat.org/mailman/listinfo/keps
BID: ORB10230.M
TO ALL RADIO AMATEURS BT

Satellite: HUBBLE
Catalog number: 20580
Epoch time:      10230.21707886
Element set:     629
Inclination:      028.4680 deg
RA of node:       194.9063 deg
Eccentricity:    0.0003678
Arg of perigee:   141.1071 deg
Mean anomaly:     218.9781 deg
Mean motion:   15.01017702 rev/day
Decay rate:       5.08e-06 rev/day^2
Epoch rev:           91408
Checksum:              280

Satellite: ISS
Catalog number: 25544
Epoch time:      10230.69424966
Element set:     729
Inclination:      051.6460 deg
RA of node:       270.7321 deg
Eccentricity:    0.0005761
Arg of perigee:   240.7464 deg
Mean anomaly:     217.5417 deg
Mean motion:   15.71898830 rev/day
Decay rate:     1.3402e-04 rev/day^2
Epoch rev:           67330
Checksum:              293

Satellite: CO-58
Catalog number: 28895
Epoch time:      10229.18613557
Element set:    0660
Inclination:      098.0048 deg
RA of node:       111.6152 deg
Eccentricity:    0.0019135
Arg of perigee:   094.3512 deg
Mean anomaly:     265.9862 deg
Mean motion:   14.59921001 rev/day
Decay rate:        7.2e-07 rev/day^2
Epoch rev:           25588
Checksum:              314

Satellite: FALCON
Catalog number: 30776
Epoch time:      10230.56030999
Element set:     894
Inclination:      035.4341 deg
RA of node:       025.5858 deg
Eccentricity:    0.0001820
Arg of perigee:   335.1792 deg
Mean anomaly:     024.8834 deg
Mean motion:   15.03770964 rev/day
Decay rate:       9.37e-06 rev/day^2
Epoch rev:           18945
Checksum:              311

Satellite: MAST
Catalog number: 31126
Epoch time:      10230.44935067
Element set:     940
Inclination:      097.9320 deg
RA of node:       269.2274 deg
Eccentricity:    0.0095248
Arg of perigee:   033.3914 deg
Mean anomaly:     327.3246 deg
Mean motion:   14.53611594 rev/day
Decay rate:        9.1e-07 rev/day^2
Epoch rev:           17710
Checksum:              285

Satellite: CAPE1
Catalog number: 31130
Epoch time:      10230.63007204
Element set:     961
Inclination:      097.9337 deg
RA of node:       266.6847 deg
Eccentricity:    0.0103617
Arg of perigee:   041.0230 deg
Mean anomaly:     319.8690 deg
Mean motion:   14.52210389 rev/day
Decay rate:       -2.8e-07 rev/day^2
Epoch rev:           17672
Checksum:              273

Satellite: COMPASS
Catalog number: 32787
Epoch time:      10230.28859440
Element set:     752
Inclination:      097.8902 deg
RA of node:       294.1786 deg
Eccentricity:    0.0016999
Arg of perigee:   084.2133 deg
Mean anomaly:     276.0996 deg
Mean motion:   14.81941063 rev/day
Decay rate:       6.85e-06 rev/day^2
Epoch rev:           12469
Checksum:              340

Satellite: AAUSAT2
Catalog number: 32788
Epoch time:      10230.42062069
Element set:     744
Inclination:      097.8900 deg
RA of node:       294.4507 deg
Eccentricity:    0.0016747
Arg of perigee:   083.6990 deg
Mean anomaly:     276.6123 deg
Mean motion:   14.82087270 rev/day
Decay rate:       6.48e-06 rev/day^2
Epoch rev:           12472
Checksum:              313

